Flag for U.S.A. Weather past 2 weeks in Flint, Michigan, U.S.A.

Now
39 °F

Clear.


Feels Like: 37 °F
Forecast: 37 / 75 °F
Wind: 3 mph from South

Location: Bishop International Airport

Current Time: May 23, 2015 at 4:11:22 AM

Latest Report: May 23, 2015 at 3:53 AM


Visibility: 10 mi

Pressure: 30.34 "Hg

Humidity: 62%

Dew point: 27 °F

Location of FlintLocation

Historic Weather in Flint — Graph

°F

Flint temperature yesterday

Maximum temperature yesterday: 67 °F (at 4:53 PM)
Minimum temperature yesterday: 44 °F (at 5:53 AM)
Average temperature yesterday: 56 °F

Past Weeks' High & Low Weather Summary

 TemperatureHumidityPressure
High84 °F (May 8, 12:53 PM)93% (May 9, 5:53 AM)30.49 "Hg (May 9, 5:53 AM)
Low38 °F (May 14, 6:53 AM)21% (May 22, 6:53 PM)29.74 "Hg (May 11, 6:53 PM)
Average61 °F66%30.08 "Hg
* Reported May 8 2:53 AM — May 23 2:53 AM, Flint, Weather by CustomWeather, © 2015

Note: Actual official high and low records may vary slightly from our data, if they occured in-between our weather recording intervals... More about our weather records

Advertising

Flint weather history for previous 24 hours

 ConditionsComfort  
Time TempWeatherWind HumidityBarometerVisibility
2:53 AM
Sat, May 23
39 °FClear.3 mph67%30.34 "Hg10 mi
1:53 AM40 °FClear.No wind60%30.34 "Hg10 mi
12:53 AM41 °FClear.6 mph58%30.35 "Hg10 mi
11:53 PM
Fri, May 22
45 °FClear.5 mph49%30.36 "Hg10 mi
10:53 PM46 °FClear.8 mph48%30.35 "Hg10 mi
9:53 PM50 °FSunny.8 mph50%30.32 "Hg10 mi
8:53 PM60 °FSunny.14 mph28%30.26 "Hg10 mi
7:53 PM64 °FSunny.8 mph26%30.25 "Hg10 mi
6:53 PM67 °FSunny.10 mph21%30.23 "Hg10 mi
5:53 PM67 °FSunny.8 mph22%30.23 "Hg10 mi
4:53 PM67 °FSunny.10 mph22%30.21 "Hg10 mi
3:53 PM66 °FSunny.14 mph25%30.21 "Hg10 mi
2:53 PM65 °FSunny.9 mph25%30.21 "Hg10 mi
1:53 PM63 °FSunny.12 mph29%30.20 "Hg10 mi
12:53 PM61 °FSunny.10 mph30%30.20 "Hg10 mi
11:53 AM59 °FSunny.13 mph33%30.19 "Hg10 mi
10:53 AM57 °FSunny.13 mph44%30.19 "Hg10 mi
9:53 AM54 °FSunny.12 mph45%30.19 "Hg10 mi
8:53 AM51 °FSunny.8 mph46%30.17 "Hg10 mi
7:53 AM49 °FSunny.10 mph43%30.15 "Hg10 mi
6:53 AM45 °FClear.7 mph60%30.11 "Hg10 mi
5:53 AM44 °FClear.6 mph58%30.09 "Hg10 mi
4:53 AM48 °FPartly cloudy.8 mph48%30.06 "Hg10 mi
Weather by CustomWeather, © 2015

See weather overviewHow to use our weather pages